Time,TemperatureF,DewpointF,PressureIn,WindDirection,WindDirectionDegrees,WindSpeedMPH,WindSpeedGustMPH,Humidity,HourlyPrecipIn,Conditions,Clouds,dailyrainin,SolarRadiationWatts/m^2,SoftwareType,DateUTC
2013-06-28 00:22:00,63.0,63.0,29.73,WSW,257,0.0,0.0,100,0.00,,,0.01,0.000000,,2013-06-28 04:22:00,
2013-06-28 00:43:00,63.0,63.0,29.72,WSW,257,0.0,0.0,100,0.00,,,0.01,0.000000,,2013-06-28 04:43:00,
2013-06-28 01:02:00,63.0,63.0,29.71,SE,146,0.0,3.0,100,0.00,,,0.01,0.000000,,2013-06-28 05:02:00,
2013-06-28 01:11:00,63.0,63.0,29.71,SE,146,0.0,0.0,100,0.00,,,0.01,0.000000,,2013-06-28 05:11:00,
2013-06-28 01:33:00,63.0,63.0,29.71,SSW,200,0.0,1.0,100,0.00,,,0.01,0.000000,,2013-06-28 05:33:00,
2013-06-28 01:43:00,62.0,62.0,29.71,SSW,200,0.0,2.0,100,0.00,,,0.01,0.000000,,2013-06-28 05:43:00,
2013-06-28 01:53:00,62.0,62.0,29.69,SSW,200,0.0,1.0,100,0.00,,,0.01,0.000000,,2013-06-28 05:53:00,
2013-06-28 02:02:00,62.0,62.0,29.67,ESE,113,1.0,3.0,100,0.00,,,0.01,0.000000,,2013-06-28 06:02:00,
2013-06-28 02:33:00,62.0,62.0,29.66,ESE,116,0.0,1.0,100,0.00,,,0.01,0.000000,,2013-06-28 06:33:00,
2013-06-28 02:42:00,62.0,62.0,29.66,ESE,116,0.0,1.0,100,0.00,,,0.01,0.000000,,2013-06-28 06:42:00,
2013-06-28 03:01:00,62.0,62.0,29.65,ESE,102,1.0,3.0,100,0.00,,,0.01,0.000000,,2013-06-28 07:01:00,
2013-06-28 03:33:00,61.0,61.0,29.62,NE,39,1.0,2.0,100,0.00,,,0.01,0.000000,,2013-06-28 07:33:00,
2013-06-28 03:43:00,61.0,61.0,29.62,East,99,0.0,3.0,100,0.00,,,0.01,0.000000,,2013-06-28 07:43:00,
2013-06-28 03:52:00,61.0,61.0,29.62,East,100,0.0,1.0,100,0.00,,,0.01,0.000000,,2013-06-28 07:52:00,
2013-06-28 04:02:00,61.0,61.0,29.62,East,100,0.0,2.0,100,0.00,,,0.01,0.000000,,2013-06-28 08:02:00,
2013-06-28 04:43:00,61.0,61.0,29.62,ESE,107,0.0,1.0,100,0.00,,,0.01,0.000000,,2013-06-28 08:43:00,
2013-06-28 04:52:00,61.0,61.0,29.62,ESE,107,0.0,0.0,100,0.00,,,0.01,0.000000,,2013-06-28 08:52:00,
2013-06-28 05:02:00,61.0,61.0,29.61,ESE,107,0.0,0.0,100,0.00,,,0.01,0.000000,,2013-06-28 09:02:00,
2013-06-28 05:11:00,61.0,61.0,29.61,ESE,107,0.0,0.0,100,0.00,,,0.01,0.000000,,2013-06-28 09:11:00,
2013-06-28 05:33:00,61.0,61.0,29.60,ESE,107,0.0,2.0,100,0.00,,,0.01,0.000000,,2013-06-28 09:33:00,
2013-06-28 05:42:00,61.0,61.0,29.60,ESE,107,0.0,0.0,100,0.00,,,0.01,0.000000,,2013-06-28 09:42:00,
2013-06-28 05:52:00,61.0,61.0,29.60,ESE,107,0.0,0.0,100,0.00,,,0.01,0.000000,,2013-06-28 09:52:00,
2013-06-28 06:22:00,61.0,61.0,29.59,ESE,107,0.0,0.0,100,0.00,,,0.01,0.000000,,2013-06-28 10:22:00,
2013-06-28 06:33:00,62.0,62.0,29.58,ESE,107,0.0,1.0,100,0.00,,,0.01,5.000000,,2013-06-28 10:33:00,
2013-06-28 06:52:00,62.0,62.0,29.57,ESE,107,0.0,1.0,100,0.00,,,0.01,18.000000,,2013-06-28 10:52:00,
2013-06-28 07:34:00,62.0,62.0,29.56,ESE,107,0.0,0.0,100,0.00,,,0.01,37.000000,,2013-06-28 11:34:00,
2013-06-28 07:43:00,62.0,62.0,29.56,ESE,107,0.0,0.0,100,0.00,,,0.01,37.000000,,2013-06-28 11:43:00,
2013-06-28 08:02:00,62.0,62.0,29.56,SSE,165,0.0,0.0,100,0.01,,,0.02,35.000000,,2013-06-28 12:02:00,
2013-06-28 08:34:00,63.0,63.0,29.56,SSE,165,0.0,0.0,100,0.01,,,0.02,25.000000,,2013-06-28 12:34:00,
2013-06-28 08:43:00,63.0,63.0,29.55,SSE,165,0.0,0.0,100,0.01,,,0.02,44.000000,,2013-06-28 12:43:00,
2013-06-28 08:52:00,63.0,63.0,29.55,SSE,165,0.0,0.0,100,0.00,,,0.02,28.000000,,2013-06-28 12:52:00,
2013-06-28 09:01:00,63.0,63.0,29.54,SSE,165,0.0,0.0,100,0.00,,,0.02,54.000000,,2013-06-28 13:01:00,
2013-06-28 09:11:00,64.0,64.0,29.54,SSE,165,0.0,0.0,100,0.00,,,0.02,69.000000,,2013-06-28 13:11:00,
2013-06-28 10:02:00,66.0,66.0,29.53,SSE,165,0.0,0.0,100,0.00,,,0.01,202.000000,,2013-06-28 14:02:00,
2013-06-28 10:12:00,68.0,68.0,29.52,SSE,153,0.0,0.0,100,0.00,,,0.01,158.000000,,2013-06-28 14:12:00,
2013-06-28 10:44:00,71.0,71.0,29.52,West,269,0.0,3.0,100,0.00,,,0.01,197.000000,,2013-06-28 14:44:00,
2013-06-28 10:53:00,71.0,71.0,29.52,West,268,0.0,3.0,100,0.00,,,0.01,552.000000,,2013-06-28 14:53:00,
2013-06-28 11:02:00,72.0,72.0,29.51,WSW,257,0.0,7.0,100,0.00,,,0.01,408.000000,,2013-06-28 15:02:00,
2013-06-28 11:34:00,73.0,73.0,29.52,WNW,302,0.0,4.0,100,0.00,,,0.01,142.000000,,2013-06-28 15:34:00,
2013-06-28 11:52:00,72.0,72.0,29.51,SSW,212,1.0,2.0,100,0.00,,,0.01,295.000000,,2013-06-28 15:52:00,
2013-06-28 12:02:00,73.0,73.0,29.51,ENE,62,1.0,3.0,100,0.00,,,0.01,295.000000,,2013-06-28 16:02:00,
2013-06-28 12:33:00,75.0,74.0,29.51,WNW,286,0.0,6.0,98,0.00,,,0.01,367.000000,,2013-06-28 16:33:00,
2013-06-28 12:44:00,77.0,74.0,29.49,East,91,1.0,4.0,91,0.00,,,0.01,1192.000000,,2013-06-28 16:44:00,
2013-06-28 12:53:00,77.0,73.0,29.49,WNW,289,3.0,9.0,88,0.00,,,0.01,1053.000000,,2013-06-28 16:53:00,
2013-06-28 13:02:00,77.0,72.0,29.49,WNW,298,0.0,11.0,86,0.00,,,0.01,1053.000000,,2013-06-28 17:02:00,
2013-06-28 13:33:00,79.0,73.0,29.49,NNW,338,1.0,6.0,83,0.00,,,0.01,1134.000000,,2013-06-28 17:33:00,
2013-06-28 13:44:00,79.0,72.0,29.49,WSW,248,1.0,12.0,79,0.00,,,0.01,967.000000,,2013-06-28 17:44:00,
2013-06-28 14:02:00,80.0,73.0,29.48,SW,217,0.0,7.0,80,0.00,,,0.01,1181.000000,,2013-06-28 18:02:00,
2013-06-28 14:33:00,81.0,72.0,29.49,NW,314,2.0,8.0,75,0.00,,,0.01,965.000000,,2013-06-28 18:33:00,
2013-06-28 14:52:00,81.0,72.0,29.48,WNW,283,0.0,12.0,74,0.00,,,0.01,643.000000,,2013-06-28 18:52:00,
2013-06-28 15:43:00,80.0,71.0,29.48,West,262,3.0,8.0,74,0.00,,,0.01,819.000000,,2013-06-28 19:43:00,
2013-06-28 15:53:00,80.0,70.0,29.47,NNW,339,2.0,12.0,71,0.00,,,0.01,747.000000,,2013-06-28 19:53:00,
2013-06-28 16:33:00,80.0,71.0,29.47,West,274,0.0,5.0,74,0.00,,,0.01,142.000000,,2013-06-28 20:33:00,
2013-06-28 16:52:00,80.0,71.0,29.48,NW,324,2.0,3.0,75,0.00,,,0.01,578.000000,,2013-06-28 20:52:00,
2013-06-28 17:02:00,80.0,71.0,29.48,WNW,289,4.0,9.0,74,0.00,,,0.01,589.000000,,2013-06-28 21:02:00,
2013-06-28 17:34:00,79.0,71.0,29.48,West,265,2.0,6.0,76,0.00,,,0.01,475.000000,,2013-06-28 21:34:00,
2013-06-28 17:43:00,79.0,71.0,29.48,WNW,293,5.0,8.0,77,0.00,,,0.01,260.000000,,2013-06-28 21:43:00,
2013-06-28 17:53:00,79.0,70.0,29.48,WSW,247,2.0,12.0,75,0.00,,,0.01,146.000000,,2013-06-28 21:53:00,
2013-06-28 18:43:00,77.0,70.0,29.47,NW,306,1.0,10.0,79,0.00,,,0.01,51.000000,,2013-06-28 22:43:00,
2013-06-28 18:52:00,77.0,70.0,29.48,SSW,213,0.0,6.0,80,0.00,,,0.01,70.000000,,2013-06-28 22:52:00,
2013-06-28 19:02:00,77.0,71.0,29.49,WNW,291,0.0,4.0,81,0.00,,,0.01,93.000000,,2013-06-28 23:02:00,
2013-06-28 19:11:00,77.0,71.0,29.49,WNW,291,0.0,0.0,81,0.00,,,0.01,81.000000,,2013-06-28 23:11:00,
2013-06-28 19:23:00,77.0,71.0,29.49,WSW,257,0.0,3.0,81,0.00,,,0.01,46.000000,,2013-06-28 23:23:00,
2013-06-28 19:43:00,76.0,70.0,29.49,NW,312,0.0,3.0,83,0.00,,,0.01,21.000000,,2013-06-28 23:43:00,
2013-06-28 19:53:00,75.0,69.0,29.49,West,281,0.0,2.0,83,0.00,,,0.01,23.000000,,2013-06-28 23:53:00,
2013-06-28 20:02:00,75.0,70.0,29.49,SW,231,0.0,1.0,84,0.00,,,0.01,23.000000,,2013-06-29 00:02:00,
2013-06-28 20:12:00,75.0,70.0,29.49,WNW,290,0.0,1.0,85,0.00,,,0.01,14.000000,,2013-06-29 00:12:00,
2013-06-28 20:23:00,75.0,70.0,29.49,WNW,290,0.0,0.0,85,0.00,,,0.01,12.000000,,2013-06-29 00:23:00,
2013-06-28 20:33:00,75.0,70.0,29.49,WNW,290,0.0,0.0,85,0.00,,,0.01,12.000000,,2013-06-29 00:33:00,
2013-06-28 20:42:00,75.0,71.0,29.50,WNW,290,0.0,0.0,86,0.00,,,0.01,9.000000,,2013-06-29 00:42:00,
2013-06-28 20:52:00,75.0,71.0,29.50,WNW,290,0.0,0.0,86,0.00,,,0.01,9.000000,,2013-06-29 00:52:00,
2013-06-28 21:01:00,75.0,71.0,29.50,West,271,0.0,0.0,86,0.00,,,0.01,5.000000,,2013-06-29 01:01:00,
2013-06-28 21:11:00,75.0,71.0,29.50,West,271,0.0,0.0,86,0.00,,,0.01,5.000000,,2013-06-29 01:11:00,
2013-06-28 21:22:00,74.0,70.0,29.50,SW,229,1.0,2.0,87,0.00,,,0.01,0.000000,,2013-06-29 01:22:00,
2013-06-28 21:32:00,74.0,70.0,29.50,SW,229,1.0,2.0,87,0.00,,,0.01,0.000000,,2013-06-29 01:32:00,
2013-06-28 21:42:00,74.0,70.0,29.50,SW,229,1.0,2.0,87,0.00,,,0.01,0.000000,,2013-06-29 01:42:00,
2013-06-28 21:52:00,74.0,70.0,29.50,SW,229,1.0,2.0,87,0.00,,,0.01,0.000000,,2013-06-29 01:52:00,
2013-06-28 22:41:00,71.0,69.0,29.54,WSW,256,0.0,0.0,94,0.00,,,0.01,0.000000,,2013-06-29 02:41:00,
2013-06-28 22:51:00,71.0,69.0,29.54,WSW,256,0.0,0.0,94,0.00,,,0.01,0.000000,,2013-06-29 02:51:00,
2013-06-28 23:01:00,71.0,69.0,29.54,WSW,256,0.0,0.0,94,0.00,,,0.01,0.000000,,2013-06-29 03:01:00,
2013-06-28 23:11:00,70.0,68.0,29.54,WSW,256,0.0,1.0,94,0.00,,,0.01,0.000000,,2013-06-29 03:11:00,
2013-06-28 23:21:00,70.0,68.0,29.54,WSW,256,0.0,1.0,94,0.00,,,0.01,0.000000,,2013-06-29 03:21:00,
2013-06-28 23:32:00,70.0,68.0,29.54,WSW,256,0.0,1.0,94,0.00,,,0.01,0.000000,,2013-06-29 03:32:00,
2013-06-28 23:41:00,70.0,69.0,29.52,West,277,2.0,2.0,96,0.00,,,0.01,0.000000,,2013-06-29 03:41:00,
2013-06-28 23:51:00,70.0,69.0,29.52,West,277,2.0,2.0,96,0.00,,,0.01,0.000000,,2013-06-29 03:51:00,